EAST SUPERIOR NM NE Marquette, MI (45004)

Conditions for Tuesday

Daily
Weekly
Monthly
Marine Data Graph

Marine & Boating Location Search

Enter a coastal zip code for marine weather.

General Information

Location: 47.585 North -86.585 West
Buoy Type: 3-meter foam buoy
Buoy Hull: 3DV04
Payload: ARES payload
Owned by: NDBC
Windspeed: Measured by obtained from anemometer
Sea Surface: Measured by Intake

Weather and Wave Data

Time Temp Humidity Wind Dominant Wave Wind Wave Wave Swell Pressure
  Air
(°F)
Water
(°F)
  Dir Speed
(kts)
Speed
(mph)
Period
(sec)
Height
(ft)
Range
(ft)
Period
(sec)
Height
(ft)
Range
(ft)
Period
(sec)
Height
(ft)
Range
(ft)
Atmo.
(in)
Tend.
(in)
20:10 59 56 71 SSW 3.9 4.5 - - - - - - 29.93 -
20:20 59 56 71 South 5.8 6.7 - - - - - - 29.92 -
20:40 59 56 71 SSW 5.8 6.7 - - - - - - 29.92 -
20:50 60 56 67 South 5.8 6.7 6 2.30 exactly 2.3 4 1.64 0.82 - 2.46 6 1.64 0.82 - 2.46 29.92 -
21:10 61 55 62 South 9.7 11.2 - - - - - - 29.91 -
21:20 61 55 64 South 9.7 11.2 - - - - - - 29.92 -
21:30 61 55 65 South 7.8 8.9 - - - - - - 29.92 -
21:40 61 55 68 South 7.8 8.9 - - - - - - 29.92 -
22:00 59 55 77 South 7.8 8.9 - - - - - - 29.92 -0.04
22:10 59 55 77 South 7.8 8.9 - - - - - - 29.92 -
22:40 59 55 82 SSW 9.7 11.2 - - - - - - 29.92 -
22:50 59 55 82 SSW 9.7 11.2 5 2.30 exactly 2.3 4 1.64 0.82 - 2.46 5 1.64 0.82 - 2.46 29.92 -
23:10 59 55 83 SSW 9.7 11.2 - - - - - - 29.93 -
23:20 59 55 82 SSW 9.7 11.2 - - - - - - 29.93 -
23:40 60 55 77 SSW 11.7 13.4 - - - - - - 29.93 -
00:10 58 55 86 SSW 9.7 11.2 - - - - - - 29.93 -
00:30 59 55 79 SSW 9.7 11.2 - - - - - - 29.94 -
00:40 60 55 74 SSW 9.7 11.2 - - - - - - 29.94 -
00:50 59 55 79 SSW 11.7 13.4 5 2.30 exactly 2.3 4 1.64 0.82 - 2.46 5 1.64 0.82 - 2.46 29.94 -
01:00 60 55 75 SSW 11.7 13.4 - - - - - - 29.94 -
01:10 60 55 76 SSW 11.7 13.4 - - - - - - 29.94 -
01:20 61 55 71 SSW 13.6 15.7 - - - - - - 29.94 -
01:40 59 55 78 SSW 9.7 11.2 - - - - - - 29.94 -
02:00 58 55 84 SSW 9.7 11.2 - - - - - - 29.94 -
02:10 59 55 81 SSW 11.7 13.4 - - - - - - 29.94 -
02:20 59 55 81 SSW 11.7 13.4 - - - - - - 29.94 -
02:30 59 55 82 SSW 11.7 13.4 - - - - - - 29.94 -
02:40 60 55 78 SSW 11.7 13.4 - - - - - - 29.94 -
02:50 59
-
82 SSW 11.7 13.4 4 1.97 exactly 2.0 4 1.64 0.82 - 2.46 - - - 29.94 -
03:00 59
-
83 SSW 11.7 13.4 - - - - - - 29.94 -
03:20 60 55 81 SW 13.6 15.7 - - - - - - 29.94 -
03:30 60 55 81 SW 13.6 15.7 - - - - - - 29.95 -
03:40 59 55 85 SW 11.7 13.4 - - - - - - 29.95 -
04:00 58 55 90 SW 9.7 11.2 - - - - - - 29.95 -
04:10 58 55 90 SW 9.7 11.2 - - - - - - 29.96 -
04:30 59 55 86 SW 9.7 11.2 - - - - - - 29.96 -
04:40 59 55 85 SW 7.8 8.9 - - - - - - 29.96 -
05:20 60 55 82 WSW 11.7 13.4 - - - - - - 29.95 -
05:30 60 55 81 WSW 11.7 13.4 - - - - - - 29.95 -
05:40 60 55 82 West 11.7 13.4 - - - - - - 29.95 -
05:50 60 55 82 West 11.7 13.4 4 1.97 exactly 2.0 4 1.64 0.82 - 2.46 - - - 29.95 -
06:00 61 55 78 West 11.7 13.4 - - - - - - 29.95 -
06:10 61 55 78 West 11.7 13.4 - - - - - - 29.95 -
06:20 60 55 82 West 11.7 13.4 - - - - - - 29.95 -
06:30 60 55 83 West 11.7 13.4 - - - - - - 29.95 -
06:50 60 55 84 West 11.7 13.4 4 1.97 exactly 2.0 4 1.64 0.82 - 2.46 - - - 29.95 -
07:10 60 56 84 West 9.7 11.2 - - - - - - 29.94 -
07:40 59 56 87 WSW 5.8 6.7 - - - - - - 29.93 -
08:00 58 56 90 WSW 3.9 4.5 - - - - - - 29.93 -
08:10 58 56 90 WSW 3.9 4.5 - - - - - - 29.93 -
08:20 59 56 86 West 3.9 4.5 - - - - - - 29.93 -
08:30 58 55 88 South 3.9 4.5 - - - - - - 29.93 -
08:40 57 56 92 South 3.9 4.5 - - - - - - 29.92 -
08:50 57 56 93 South 3.9 4.5 6 2.30 exactly 2.3 3 1.64 0.82 - 2.46 6 1.64 0.82 - 2.46 29.93 -
09:10 58 56 90 SSW 5.8 6.7 - - - - - - 29.93 -
09:20 58 56 90 South 7.8 8.9 - - - - - - 29.94 -
09:30 58 56 92 SSW 7.8 8.9 - - - - - - 29.94 -
09:40 59 56 86 South 7.8 8.9 - - - - - - 29.94 -
09:50 58 56 91 SE 5.8 6.7 5 2.30 exactly 2.3 4 1.64 0.82 - 2.46 5 1.64 0.82 - 2.46 29.94 -
10:00 59 56 88 South 9.7 11.2 - - - - - - 29.94 -
10:10 58 56 90 SSE 3.9 4.5 - - - - - - 29.94 -
10:40 59 56 85 SE 5.8 6.7 - - - - - - 29.94 -
10:50 59 56 85 SSE 5.8 6.7 5 1.97 exactly 2.0 4 1.64 0.82 - 2.46 5 1.64 0.82 - 2.46 29.95 -
11:10 58 56 90 SSE 3.9 4.5 - - - - - - 29.96 -
11:20 59 56 85 South 3.9 4.5 - - - - - - 29.96 -
11:30 58 56 90 SSE 3.9 4.5 - - - - - - 29.97 -
11:40 56
-
- 1.9 2.2 - - - - - -
-
-
11:50 58 56 90 SSE 3.9 4.5 6 1.97 exactly 2.0 4 1.64 0.82 - 2.46 6 1.64 0.82 - 2.46 29.97 -
12:10 58 56 90 South 1.9 2.2 - - - - - - 29.98 -
12:30 58 56 90 SSW 1.9 2.2 - - - - - - 29.98 -
12:40 58 56 92 WSW 3.9 4.5 - - - - - - 29.99 -
13:20 58 56 94 SSW 7.8 8.9 - - - - - - 29.97 -
13:40 58 56 95 WSW 7.8 8.9 - - - - - - 29.97 -
13:50 60 56 87 WSW 7.8 8.9 6 1.97 exactly 2.0 4 1.64 0.82 - 2.46 6 1.64 0.82 - 2.46 29.96 -
14:10 60 56 86 WSW 5.8 6.7 - - - - - - 29.95 -
14:20 59 56 90 WSW 5.8 6.7 - - - - - - 29.95 -
14:30 59 56 88 SSW 5.8 6.7 - - - - - - 29.95 -
14:40 58 56 92 SSW 7.8 8.9 - - - - - - 29.94 -
14:50 58 56 93 SSW 5.8 6.7 5 1.97 exactly 2.0 3 1.64 0.82 - 2.46 5 1.64 0.82 - 2.46 29.94 -
15:10 58 55 94 SSW 7.8 8.9 - - - - - - 29.94 -
15:30 58 55 94 South 5.8 6.7 - - - - - - 29.92 -
15:40 58 55 92 South 3.9 4.5 - - - - - - 29.92 -
16:00 58 55 94 South 1.9 2.2 - - - - - - 29.91 -
16:10 59
-
88 West 1.9 2.2 - - - - - - 29.93 -
16:20 58 55 92 SSW 5.8 6.7 - - - - - - 29.93 -
16:30 58 55 94 SSW 3.9 4.5 - - - - - - 29.92 -
16:40 58 55 94 SSW 1.9 2.2 - - - - - - 29.93 -
16:50 58 55 94 WSW 1.9 2.2 4 1.31 exactly 1.3 4 1.64 0.82 - 2.46 - - - 29.93 -
17:10 59 55 91 South 1.9 2.2 - - - - - - 29.92 -
17:20 58 55 94 SSE 3.9 4.5 - - - - - - 29.92 -
17:30 58 56 94 SSE 3.9 4.5 - - - - - - 29.91 -
17:50 59 56 92 SSE 3.9 4.5 4 1.31 exactly 1.3 4 1.64 0.82 - 2.46 - - - 29.91 -
18:10 60 56 88 South 3.9 4.5 - - - - - - 29.91 -
18:20 60 56 89 South 3.9 4.5 - - - - - - 29.91 -
18:30 59 56 93 South 3.9 4.5 - - - - - - 29.91 -
18:40 59 56 94 South 3.9 4.5 - - - - - - 29.91 -
18:50 60 56 90 SSW 3.9 4.5 3 0.98 exactly 1.0 3 1.64 0.82 - 2.46 - - - 29.91 -
19:10 60 56 90 WSW 1.9 2.2 - - - - - - 29.91 -
19:20 60 56 90 SW 3.9 4.5 - - - - - - 29.90 -
19:40 60 56 90 WSW 3.9 4.5 - - - - - - 29.91 -
19:50 60 56 90 West 3.9 4.5 4 1.31 exactly 1.3 4 1.64 0.82 - 2.46 - - - 29.91 -
20:00 60 56 90 West 3.9 4.5 - - - - - - 29.91 -
20:10 59 56 95 West 3.9 4.5 - - - - - - 29.91 -
20:20 59 56 95 WSW 3.9 4.5 - - - - - - 29.91 -
20:30 59 56 95 West 3.9 4.5 - - - - - - 29.91 -
20:40 59 56 95 WSW 3.9 4.5 - - - - - - 29.91 -
20:50 59 56 96 WSW 3.9 4.5 3 1.31 exactly 1.3 3 1.64 0.82 - 2.46 - - - 29.91 -
21:10 59 56 97 West 5.8 6.7 - - - - - - 29.91 -
21:20 59 56 97 West 3.9 4.5 - - - - - - 29.92 -
21:30 59 56 96 West 3.9 4.5 - - - - - - 29.92 -
21:40 59 56 95 West 3.9 4.5 - - - - - - 29.92 -
21:50 59 56 97 West 5.8 6.7 3 0.98 exactly 1.0 3 1.64 0.82 - 2.46 - - - 29.93 -
22:00 59
-
96 West 5.8 6.7 - - - - - - 29.93 -
22:30 59 57 95 WNW 5.8 6.7 - - - - - - 29.93 -
22:50 60 57 91 WNW 7.8 8.9 4 0.98 exactly 1.0 4 1.64 0.82 - 2.46 - - - 29.92 -
23:00 60 57 91 NW 7.8 8.9 - - - - - - 29.93 -
23:10 59 57 96 NW 7.8 8.9 - - - - - - 29.93 -
23:20 60 57 92 WNW 7.8 8.9 - - - - - - 29.93 -
23:30 59 57 96 WNW 5.8 6.7 - - - - - - 29.93 -
23:40 59 57 95 WNW 5.8 6.7 - - - - - - 29.93 -
23:50 59 56 96 WNW 7.8 8.9 5 0.98 exactly 1.0 - - - - - - 29.93 -
00:10 59 57 96 WNW 7.8 8.9 - - - - - - 29.93 -
00:40 59 57 97 NW 9.7 11.2 - - - - - - 29.93 -
00:50 59 57 97 NW 9.7 11.2 5 0.98 exactly 1.0 - - - - - - 29.93 -
01:00 59 57 97 NW 9.7 11.2 - - - - - - 29.93 -
01:20 58 57 100 NW 7.8 8.9 - - - - - - 29.93 -
01:30 58 57 100 NW 5.8 6.7 - - - - - - 29.93 -
01:40 58 57 100 NW 7.8 8.9 - - - - - - 29.93 -
01:50 58 57 100 NW 7.8 8.9 5 0.98 exactly 1.0 - - - - - - 29.93 -
02:10 58 57 100 NW 5.8 6.7 - - - - - - 29.93 -
02:30 58 57 99 NW 5.8 6.7 - - - - - - 29.93 -
02:40 58 57 100 NW 7.8 8.9 - - - - - - 29.93 -
03:10 58 57 99 NW 7.8 8.9 - - - - - - 29.93 -
03:40 58 57 98 NW 5.8 6.7 - - - - - - 29.93 -
03:50 58 57 97 NW 3.9 4.5 0.66 exactly 0.7 - - - - - - 29.93 -

Detailed Wave Spectra

Time Water Depth Wave Height Spectral Peak Period Average Wave Period Sampling Interval Wave Record
20:00 781 ft 2.40 ft 5.9 sec 4.4 sec 0.6 sec 2400 sec
21:00 781 ft 2.33 ft 5.9 sec 4.4 sec 0.6 sec 2400 sec
23:00 781 ft 2.23 ft 4.8 sec 4.3 sec 0.6 sec 2400 sec
09:00 781 ft 2.46 ft 5.9 sec 4.1 sec 0.6 sec 2400 sec
12:00 781 ft 2.10 ft 5.9 sec 4.3 sec 0.6 sec 2400 sec
13:00 781 ft 2.10 ft 5.9 sec 4.4 sec 0.6 sec 2400 sec
14:00 781 ft 2.13 ft 5.6 sec 4.3 sec 0.6 sec 2400 sec
15:00 781 ft 1.90 ft 5.3 sec 4.1 sec 0.6 sec 2400 sec
17:00 781 ft 1.35 ft 3.6 sec 3.3 sec 0.6 sec 2400 sec
18:00 781 ft 1.21 ft 3.8 sec 3.3 sec 0.6 sec 2400 sec
00:00 781 ft 0.92 ft 4.5 sec 3.4 sec 0.6 sec 2400 sec
02:00 781 ft 0.92 ft 4.8 sec 3.2 sec 0.6 sec 2400 sec
03:00 781 ft 0.82 ft 4.8 sec 3.4 sec 0.6 sec 2400 sec